Home   Weather   Las Palmas   Past weeks

Flag for Spain Past Weather in Las Palmas, Canary Islands, Spain — Yesterday and Last 2 Weeks

75 °F

Passing clouds.

Feels Like: 77 °F
Forecast: 69 / 78 °F
Wind: 8 mph from Northeast

Location: Las Palmas De Gran Canaria / Gando

Current Time: Oct 21, 2016 at 12:25:32 PM

Latest Report: Oct 21, 2016 at 11:30 AM

Visibility: N/A

Pressure: 29.98 "Hg

Humidity: 69%

Dew Point: 64 °F

Location of Las PalmasLocation

Past Weather in Las Palmas — Graph


Las Palmas Temperature Yesterday

Maximum temperature yesterday: 79 °F (at 1:30 PM)
Minimum temperature yesterday: 72 °F (at 2:00 AM)
Average temperature yesterday: 74 °F

High & Low Weather Summary for the Past Weeks

High86 °F (Oct 17, 11:00 AM)83% (Oct 20, 8:00 AM)30.15 "Hg (Oct 20, 8:00 AM)
Low66 °F (Oct 13, 5:30 AM)32% (Oct 17, 10:00 AM)29.86 "Hg (Oct 6, 2:00 PM)
Average74 °F65%30.02 "Hg
* Reported Oct 6 11:00 AM — Oct 21 11:00 AM, Las Palmas, Weather by CustomWeather, © 2016

Note: Actual official high and low records may vary slightly from our data, if they occured in-between our weather recording intervals... More about our weather records


Las Palmas Weather History for the Previous 24 Hours

Scroll right to see more
Time TempWeatherWind HumidityBarometerVisibility
11:00 AM
Fri, Oct 21
75 °FPassing clouds.10 mph69%29.98 "HgN/A
10:30 AM75 °FPassing clouds.10 mph69%29.98 "HgN/A
10:00 AM73 °FPassing clouds.9 mph74%29.98 "HgN/A
9:30 AM73 °FPassing clouds.8 mph74%29.95 "HgN/A
9:00 AM72 °FPassing clouds.8 mph73%29.95 "HgN/A
8:30 AM70 °FPassing clouds.7 mph78%29.95 "HgN/A
8:00 AM70 °FPassing clouds.8 mph78%29.95 "HgN/A
7:30 AM70 °FPassing clouds.8 mph78%29.92 "HgN/A
7:00 AM68 °FPassing clouds.7 mph78%29.92 "HgN/A
6:30 AM68 °FPassing clouds.8 mph78%29.92 "HgN/A
6:00 AM68 °FPassing clouds.9 mph78%29.92 "HgN/A
5:30 AM70 °FPassing clouds.8 mph73%29.92 "HgN/A
5:00 AM70 °FPassing clouds.9 mph73%29.92 "HgN/A
4:30 AM68 °FPassing clouds.8 mph78%29.92 "HgN/A
4:00 AM68 °FPassing clouds.8 mph78%29.95 "HgN/A
3:30 AM70 °FPassing clouds.8 mph78%29.95 "HgN/A
3:00 AM70 °FPassing clouds.8 mph78%29.95 "HgN/A
2:30 AM70 °FPassing clouds.9 mph73%29.95 "HgN/A
2:00 AM70 °FPassing clouds.7 mph78%29.95 "HgN/A
1:30 AM70 °FPassing clouds.9 mph83%29.95 "HgN/A
1:00 AM70 °FPassing clouds.9 mph78%29.95 "HgN/A
12:30 AM70 °FPassing clouds.10 mph83%29.95 "HgN/A
12:00 AM72 °FClear.10 mph83%29.98 "Hg10 mi
11:30 PM
Thu, Oct 20
72 °FClear.10 mph83%29.98 "Hg10 mi
11:00 PM72 °FClear.12 mph83%29.98 "Hg10 mi
10:30 PM72 °FClear.10 mph83%29.98 "Hg10 mi
10:00 PM72 °FClear.10 mph83%29.98 "Hg10 mi
9:30 PM73 °FClear.9 mph78%29.95 "Hg10 mi
9:00 PM73 °FPassing clouds.13 mph78%29.95 "HgN/A
8:30 PM73 °FPassing clouds.10 mph78%29.95 "HgN/A
8:00 PM73 °FPassing clouds.14 mph78%29.95 "HgN/A
7:30 PM73 °FPassing clouds.14 mph78%29.95 "HgN/A
7:00 PM75 °FSunny.14 mph74%29.95 "Hg10 mi
6:30 PM75 °FSunny.16 mph74%29.95 "Hg10 mi
6:00 PM77 °FSunny.17 mph69%29.95 "Hg10 mi
5:30 PM77 °FSunny.17 mph69%29.95 "Hg10 mi
5:00 PM77 °FSunny.18 mph69%29.95 "Hg10 mi
4:30 PM79 °FSunny.20 mph65%29.95 "Hg10 mi
4:00 PM79 °FSunny.20 mph65%29.95 "Hg10 mi
3:30 PM79 °FSunny.21 mph65%29.95 "Hg10 mi
3:00 PM79 °FSunny.20 mph65%29.95 "Hg10 mi
2:30 PM79 °FSunny.21 mph65%29.98 "Hg10 mi
2:00 PM79 °FSunny.22 mph65%29.98 "Hg10 mi
1:30 PM79 °FSunny.22 mph65%29.98 "Hg10 mi
1:00 PM77 °FSunny.23 mph69%30.01 "Hg10 mi
12:30 PM77 °FSunny.21 mph69%30.01 "Hg10 mi
12:00 PM77 °FSunny.21 mph69%30.01 "Hg10 mi
Weather by CustomWeather, © 2016

See weather overviewHow to use our weather pages